VK4SSH Weather Reports


Display with metric or nautical units.
time (UTC)temp
F
wind
direction
speed
MPH
gust
MPH
rain 1hr
in
rain 24hr
in
rain mn
in
humidity
%
barometer
mb
20260505124530 67 0.0 0.0 0.00 0.00 0.00 94
20260505123530 67 0.0 0.0 0.00 0.00 0.00 94
20260505122530 68 0.0 0.0 0.00 0.00 0.00 94
20260505121530 67 248 0.0 1.0 0.00 0.00 0.00 94
20260505120530 67 0.0 0.0 0.00 0.00 0.00 95
20260505115530 67 0.0 0.0 0.00 0.00 0.00 95
20260505114530 67 0.0 0.0 0.00 0.00 0.00 95
20260505113530 68 0.0 0.0 0.00 0.00 0.00 94
20260505112530 68 0.0 0.0 0.00 0.00 0.00 95
20260505111530 67 0.0 0.0 0.00 0.00 0.00 95
20260505110529 67 0.0 0.0 0.00 0.00 0.00 96
20260505101529 68 0.0 0.0 0.00 0.00 0.00 95
20260505100530 68 0.0 0.0 0.00 0.00 0.00 95
20260505095530 68 0.0 0.0 0.00 0.00 0.00 95
20260505094530 68 0.0 0.0 0.00 0.00 0.00 95
20260505093530 68 0.0 0.0 0.00 0.00 0.00 94
20260505092530 69 0.0 0.0 0.00 0.00 0.00 94
20260505091530 69 0.0 0.0 0.00 0.00 0.00 94
20260505090530 69 0.0 0.0 0.00 0.00 0.00 93
20260505085529 69 0.0 0.0 0.00 0.00 0.00 93
20260505084529 70 0.0 0.0 0.00 0.00 0.00 92
20260505083530 70 0.0 0.0 0.00 0.00 0.00 92
20260505082529 70 0.0 0.0 0.00 0.00 0.00 91
20260505081525 71 0.0 0.0 0.00 0.00 0.00 91
20260505080529 71 0.0 0.0 0.00 0.00 0.00 90
20260505075529 71 0.0 0.0 0.00 0.00 0.00 90
20260505074530 71 0.0 0.0 0.00 0.00 0.00 89
20260505073529 72 0.0 0.0 0.00 0.00 0.00 88
20260505072530 72 0.0 0.0 0.00 0.00 0.00 87
20260505071529 73 202 0.0 1.0 0.00 0.00 0.00 85
20260505070529 73 0.0 0.0 0.00 0.00 0.00 83
20260505065529 74 0.0 0.0 0.00 0.00 0.00 80
20260505064529 75 135 0.0 1.0 0.00 0.00 0.00 78
20260505063529 75 158 0.0 1.0 0.00 0.00 0.00 76
20260505062529 75 0.0 0.0 0.00 0.00 0.00 75
20260505061529 76 158 0.0 2.0 0.00 0.00 0.00 74
20260505060529 76 0.0 0.0 0.00 0.00 0.00 74
20260505055529 76 0.0 0.0 0.00 0.00 0.00 74
20260505054529 77 0.0 0.0 0.00 0.00 0.00 73
20260505053529 78 0.0 0.0 0.00 0.00 0.00 72
20260505052529 78 135 0.0 2.0 0.00 0.00 0.00 72
20260505051529 79 112 0.0 2.0 0.00 0.00 0.00 71
20260505050529 79 112 0.0 2.0 0.00 0.00 0.00 70
20260505041529 80 112 0.0 2.0 0.00 0.00 0.00 70
20260505040529 80 112 0.0 1.0 0.00 0.00 0.00 70
20260505035529 79 0.0 0.0 0.00 0.00 0.00 70
20260505034529 80 112 0.0 1.0 0.00 0.00 0.00 70
20260505033529 80 158 0.0 1.0 0.00 0.00 0.00 66
20260505032529 79 0.0 0.0 0.00 0.00 0.00 67
20260505031529 80 158 0.0 2.0 0.00 0.00 0.00 68
20260505030529 79 248 0.0 2.0 0.00 0.00 0.00 67
20260505025530 80 158 0.0 2.0 0.00 0.00 0.00 67
20260505024529 80 158 0.0 1.0 0.00 0.00 0.00 65
20260505023529 79 158 0.0 2.0 0.00 0.00 0.00 64
20260505022529 79 158 0.0 2.0 0.00 0.00 0.00 67
20260505021529 79 158 1.0 3.0 0.00 0.00 0.00 69
20260505020529 80 158 1.0 5.0 0.00 0.00 0.00 68
20260505015529 80 112 0.0 2.0 0.00 0.00 0.00 66
20260505014529 79 112 0.0 1.0 0.00 0.00 0.00 66
20260505013529 78 129 1.0 3.0 0.00 0.00 0.00 70
20260505012529 78 112 0.0 2.0 0.00 0.00 0.00 71
20260505011529 78 135 1.0 3.0 0.00 0.00 0.00 71
20260505010529 78 75 0.0 2.0 0.00 0.00 0.00 71
20260505005529 81 338 2.0 3.0 0.00 0.00 0.00 69
20260505004529 82 135 0.0 2.0 0.00 0.00 0.00 65
20260505003529 82 135 0.0 2.0 0.00 0.00 0.00 64
20260505002529 81 135 1.0 3.0 0.00 0.00 0.00 65
20260505001529 81 151 1.0 4.0 0.00 0.00 0.00 69
20260505000529 80 135 1.0 2.0 0.00 0.00 0.00 68
20260504235529 79 135 1.0 2.0 0.00 0.00 0.00 72
20260504234529 79 112 0.0 1.0 0.00 0.00 0.00 74
20260504233529 77 112 0.0 2.0 0.00 0.00 0.00 74
20260504232529 76 116 1.0 3.0 0.00 0.00 0.00 79
20260504231529 74 135 0.0 2.0 0.00 0.00 0.00 82
20260504230529 73 141 1.0 4.0 0.00 0.00 0.00 84
20260504225529 72 137 1.0 4.0 0.00 0.00 0.00 87
20260504224529 71 135 0.0 1.0 0.00 0.00 0.00 88
20260504223529 70 149 2.0 4.0 0.00 0.00 0.00 89
20260504222529 70 135 0.0 2.0 0.00 0.00 0.00 91
20260504221529 69 112 0.0 1.0 0.00 0.00 0.00 93
20260504220529 68 112 0.0 1.0 0.00 0.00 0.00 95
20260504215529 67 0.0 0.0 0.00 0.00 0.00 96
20260504214529 66 0.0 0.0 0.00 0.00 0.00 97
20260504213529 66 112 0.0 2.0 0.00 0.00 0.00 98
20260504212529 66 112 0.0 2.0 0.00 0.00 0.00 98
20260504211529 66 135 0.0 2.0 0.00 0.02 0.00 98
20260504210529 66 135 0.0 2.0 0.00 0.05 0.00 98
20260504205529 65 0.0 0.0 0.00 0.05 0.00 98
20260504204529 65 0.0 0.0 0.00 0.05 0.00 98
20260504203529 65 0.0 0.0 0.00 0.05 0.00 98
20260504202529 65 135 0.0 1.0 0.00 0.05 0.00 98
20260504201529 65 102 0.0 2.0 0.00 0.05 0.00 98
20260504200529 65 41 0.0 2.0 0.00 0.05 0.00 98
20260504195529 65 0.0 0.0 0.00 0.05 0.00 98
20260504194529 66 0.0 0.0 0.00 0.05 0.00 98
20260504193529 65 22 0.0 2.0 0.00 0.05 0.00 99
20260504192529 65 0.0 0.0 0.00 0.05 0.00 98
20260504191529 65 45 0.0 1.0 0.00 0.05 0.00 98
20260504190529 65 45 0.0 2.0 0.00 0.05 0.00 98
20260504185529 65 0 0.0 2.0 0.00 0.05 0.00 98
20260504184529 65 0.0 0.0 0.00 0.05 0.00 98
20260504183529 65 0.0 0.0 0.00 0.05 0.00 98
20260504182529 66 0.0 0.0 0.00 0.05 0.00 98
20260504181529 66 0.0 0.0 0.00 0.05 0.00 98
20260504180529 66 0 0.0 1.0 0.00 0.05 0.00 98
20260504175529 66 0.0 0.0 0.00 0.05 0.00 98
20260504174529 66 0.0 0.0 0.00 0.05 0.00 98
20260504173529 67 0 0.0 2.0 0.00 0.05 0.00 98
20260504172529 67 0.0 0.0 0.00 0.05 0.00 98
20260504171529 67 0.0 0.0 0.00 0.05 0.00 98
20260504170529 67 0 0.0 2.0 0.00 0.05 0.00 98
20260504150529 66 0.0 0.0 0.00 0.05 0.00 98
20260504140529 67 0.0 0.0 0.00 0.05 0.00 97
20260504130529 67 0.0 0.0 0.00 0.05 0.05 96